COSMOS 1275 DEB

Satellite information

Favourite Embed

Satellite Type and Status

DEBRISIN ORBIT

Key statistics

Satellite COSMOS 1275 DEB at a glance.

Uptime

16167

Days in orbit

Revolutions

≈ 14.1

Per day

Orbit

LEO

Low Earth Orbit

Inclination

83.0

Latest

Satellite identification and parameters

Extended collection of information and parameters for COSMOS 1275 DEB.

Object identification

Identified? True

Debris? True

Object name: COSMOS 1275 DEB

International designator: 1981-053TQ

Object number (NORAD): 42200

Object ID (CCSDS): 42200

Country: COMMONWEALTH OF INDEPENDENT STATES (CIS)

Current information (Y/N): Y

RCS size: SMALL

Orbital parameters

Period: 102.268 minutes

Inclination: 82.986 deg

SMA: 7244.142 km

Apoapsis: 914.997 km

Periapsis: 817.017 km

RAAN: 350.7644 deg

Eccentricy: 0.00676276

Argument of periapsis: 270.194 deg

Mean anomaly: 89.1485 deg

Mean motion: 14.08063814 rev/day

Mean motion (dot): 0.00004212 rev/day2

B* drag term: 0.0024150179 1/REarth

Two-line elements (TLE)

Creation date: Sept. 7, 2025, 9:49 a.m.

Reference frame: TEME

Reference center: EARTH

Epoch: Sept. 7, 2025, 12:21 a.m. UTC

TLE line 0: 0 COSMOS 1275 DEB

TLE line 1: 1 42200U 81053TQ 25250.01502619 .00004212 00000-0 24150-2 0 9996

TLE line 2: 2 42200 82.9860 350.7644 0067628 270.1940 89.1485 14.08063814601865

Live tracking on map

Real-time ground track for satellite COSMOS 1275 DEB.

In-orbit conjunctions

A list of the most updated potential collisions computed for object COSMOS 1275 DEB.

Target Orbit TCA Probability of collision Miss distance Type
THOR BURNER 2 R/B SSO 2024-09-29 19:36:07 0.0001714996 331.0 (m) ROCKET BODY
COSMOS 1275 DEB LEO 2024-09-05 18:01:06 0.0001256909 29.0 (m) DEBRIS

Associated space launch

Navigation satellite providing location information for the Tsiklon-B navigation system

COSMOS 1275 DEB was lifted into orbit during the mission ‘Kosmos-3M | Parus 27’, on board a Kosmos-3M space rocket.

The launch took place on June 4, 1981, 3:41 p.m. from 132/2.

For more information about the launch, click the button.

Launch to space Kosmos-3M | Parus 27
Kosmos-3M | Parus 27

Agency: N/A

Status: Launch Successful

Launch date: June 4, 1981, 3:41 p.m. UTC

Rocket: Kosmos-3M

Launch pad: 132/2

Location: Plesetsk Cosmodrome, Russian Federation

...

Latest news about this satellite

There are no fresh news available about this satellite. Check back as we update our databases every day.


Newsletter sign-up

Weekly statistics, charts and insights to help you stay on top of the space industry.